User: anonymous   Login
Location: Poughquag
(41.6090°N, 73.6820°W)
Time: 11:47:49
(UTC-04:00)
Language:

STARLINK-1324 - Orbit

View from above orbital plane
View from above orbital plane
View from above satellite
View from above satellite

Ground track
Ground track

The orbit data is extracted from the following two-line orbital elements,

1 45574U 20025AV  20221.50001157 -.00512435  00000-0 -12506-1 0  9997
2 45574  53.0007 232.7349 0001117  63.8864 247.9685 15.42311540 17541
Epoch (UTC): 08 August 2020 12:00:01
Eccentricity: 0.0001117
inclination: 53.0007°
perigee height: 438 km
apogee height: 440 km
right ascension of ascending node: 232.7349°
argument of perigee: 63.8864°
revolutions per day: 15.42311540
mean anomaly at epoch: 247.9685°
orbit number at epoch: 1754

The dashed part of the orbit path shows where the satellite is in the earth's shadow,  

DLR